sat.trackr.live / text

‹ back to catalog

ONEWEB-0456

NORAD 51646 · 2022-012AA

PAYLOAD ACTIVE UNKNOWN

§ Identity

Operator
Country
UK
Launch date
2022-02-10
Launch site
FRGUI
Launch vehicle
Mass (kg)
RCS (m²)

Purposes: comms

External: N2YO · Heavens-Above · Gunter

§ Orbital elements

Epoch: 2026-09-19T15:27:23.474016Z

Period
109.89 min
Inclination
87.8907°
Eccentricity
0.0001769
Mean motion
13.10370722 rev/d
Perigee alt
1,220.4 km
Apogee alt
1,223.1 km
Semi-major
7,599.9 km
B*
-8.6869e-4
RAAN
17.4569°
Arg perigee
98.3813°
Mean anomaly
261.7515°
Rev number
22,171

§ Raw data

ONEWEB-04561 51646U 22012AA  26262.64402169 -.00000291  00000+0 -86869-3 0  99922 51646  87.8907  17.4569 0001769  98.3813 261.7515 13.10370722221716

JSON: /api/v1/satellites/51646 · /tle

For live sub-satellite position, see the globe view (requires WebGL).

§ Visibility from observer

Set your observer location to see the next 7 days of passes ≥ 10°. The values pass through the URL so the page stays shareable.

No JS? Fill the form by hand. The geolocation button needs JavaScript.